sat.trackr.live / text

‹ back to catalog

HULIANWANG DIGUI-146

NORAD 67522 · 2026-013A

PAYLOAD ACTIVE UNKNOWN

§ Identity

Operator
Country
PRC
Launch date
2026-01-19
Launch site
WSC
Launch vehicle
Mass (kg)
RCS (m²)

External: N2YO · Heavens-Above · Gunter

§ Orbital elements

Epoch: 2026-05-25T01:53:38.916096Z

Period
108.33 min
Inclination
50.0082°
Eccentricity
0.0000968
Mean motion
13.29328403 rev/d
Perigee alt
1,148.6 km
Apogee alt
1,150.0 km
Semi-major
7,527.4 km
B*
8.3214e-5
RAAN
78.7675°
Arg perigee
24.8827°
Mean anomaly
335.2092°
Rev number
1,697

§ Raw data

HULIANWANG DIGUI-1461 67522U 26013A   26145.07892264 -.00000085  00000+0  83214-4 0  99952 67522  50.0082  78.7675 0000968  24.8827 335.2092 13.29328403 16975

JSON: /api/v1/satellites/67522 · /tle

For live sub-satellite position, see the globe view (requires WebGL).

§ Visibility from observer

Set your observer location to see the next 7 days of passes ≥ 10°. The values pass through the URL so the page stays shareable.

No JS? Fill the form by hand. The geolocation button needs JavaScript.